Cartersville, GA

5:02 AM EST on November 15, 2019 (GMT -0500)
Cartersville

Weather History for KVPC - September, 2019

Change the Weather History Date:

Wednesday, September 25, 2019

  Actual Average Record
Temperature  
Mean Temperature 74 °F 68 °F  
Max Temperature 93 °F 79 °F 93 °F (2016)
Min Temperature 55 °F 56 °F 46 °F (2008)
Degree Days  
Heating Degree Days 0 1  
Month to date heating degree days 0 7  
Since 1 July heating degree days 0 7  
Cooling Degree Days 10 4  
Month to date cooling degree days 370 191  
Year to date cooling degree days 1942 1456  
Growing Degree Days 24 (Base 50)    
Moisture  
Dew Point 57 °F    
Average Humidity 58    
Maximum Humidity 87    
Minimum Humidity 30    
Precipitation  
Precipitation 0.00 in 0.13 in 2.45 in (2015)
Month to date precipitation 0.01 2.97  
Year to date precipitation 31.55 37.56  
Sea Level Pressure  
Sea Level Pressure 29.89 in    
Wind  
Wind Speed 1 mph ()    
Max Wind Speed 8 mph    
Max Gust Speed 15 mph    
Visibility 10.0 miles    
Events      
T = Trace of Precipitation, MM = Missing Value Source: Averaged Metar Reports

Daily Weather History Graph

Daily Weather History Graph

Search for Another Location

Airport or City:

Astronomy

Sep. 25, 2019 Rise Set
Actual Time 7:29 AM EDT 7:32 PM EDT
Civil Twilight 7:04 AM EDT 7:57 PM EDT
Nautical Twilight 6:35 AM EDT 8:26 PM EDT
Astronomical Twilight 6:05 AM EDT 8:55 PM EDT
Moon 3:36 AM EDT (9/25) 5:51 PM EDT (9/25)
Length of Visible Light 12h 52m
Length of Day
12h 02m
Waning Crescent, 14% of the Moon is Illuminated
Sep 25
Waning Crescent
Sep 28
New
Oct 5
First Quarter
Oct 13
Full
Oct 21
Last Quarter

Hourly Weather History & Observations

Time (EDT) Temp. Heat Index Dew Point Humidity Pressure Visibility Wind Dir Wind Speed Gust Speed Precip Events Conditions
12:53 AM 66.0 °F - 52.0 °F 60% 29.86 in 10.0 mi Calm Calm - N/A   Clear
1:53 AM 64.0 °F - 52.0 °F 65% 29.86 in 10.0 mi Calm Calm - N/A   Clear
2:53 AM 61.0 °F - 53.1 °F 75% 29.86 in 10.0 mi Calm Calm - N/A   Clear
3:53 AM 59.0 °F - 53.1 °F 81% 29.86 in 10.0 mi Calm Calm - N/A   Clear
4:53 AM 57.9 °F - 52.0 °F 81% 29.88 in 10.0 mi Calm Calm - N/A   Clear
5:53 AM 57.9 °F - 52.0 °F 81% 29.89 in 10.0 mi Calm Calm - N/A   Clear
6:53 AM 55.9 °F - 52.0 °F 87% 29.91 in 10.0 mi Calm Calm - N/A   Clear
7:53 AM 57.9 °F - 52.0 °F 81% 29.94 in 10.0 mi Calm Calm - N/A   Clear
8:53 AM 63.0 °F - 54.0 °F 72% 29.96 in 10.0 mi Calm Calm - N/A   Clear
9:53 AM 70.0 °F - 55.0 °F 59% 29.96 in 10.0 mi Calm Calm - N/A   Clear
10:53 AM 77.0 °F - 55.9 °F 48% 29.96 in 10.0 mi Calm Calm - N/A   Clear
11:53 AM 82.9 °F 82.0 °F 55.0 °F 38% 29.94 in 10.0 mi Calm Calm - N/A   Clear
12:53 PM 88.0 °F 85.7 °F 53.1 °F 30% 29.92 in 10.0 mi Variable 4.6 mph - N/A   Partly Cloudy
1:53 PM 89.1 °F 88.0 °F 57.9 °F 35% 29.89 in 10.0 mi Variable 4.6 mph - N/A   Clear
2:53 PM 91.0 °F 90.2 °F 59.0 °F 34% 29.87 in 10.0 mi North 5.8 mph - N/A   Clear
3:53 PM 91.9 °F 90.8 °F 57.9 °F 32% 29.85 in 10.0 mi South 5.8 mph - N/A   Clear
4:53 PM 93.0 °F 92.0 °F 57.9 °F 31% 29.85 in 10.0 mi Variable 3.5 mph - N/A   Clear
5:53 PM 93.0 °F 92.3 °F 59.0 °F 32% 29.84 in 10.0 mi Calm Calm - N/A   Clear
6:53 PM 91.0 °F 90.5 °F 60.1 °F 35% 29.83 in 10.0 mi Calm Calm - N/A   Clear
7:53 PM 80.1 °F 81.2 °F 62.1 °F 54% 29.86 in 10.0 mi Calm Calm - N/A   Clear
8:53 PM 75.9 °F - 63.0 °F 64% 29.87 in 10.0 mi Calm Calm - N/A   Clear
9:53 PM 73.9 °F - 63.0 °F 68% 29.88 in 10.0 mi Calm Calm - N/A   Clear
10:53 PM 73.0 °F - 64.0 °F 73% 29.88 in 10.0 mi Calm Calm - N/A   Clear
11:53 PM 71.1 °F - 64.0 °F 78% 29.89 in 10.0 mi Calm Calm - N/A   Clear